Location: Marysville Observatory
(48.1092°N, 122.1645°W)
Time: 20:13:05
(UTC-08:00)

ISS - Visible Passes

Search period start: 20 November 2014 00:00
Search period end: 30 November 2014 00:00
Orbit: 408 x 417 km, 51.6° (Epoch: 20 November)

Date Brightness Start Highest point End Pass type
(mag) Time Alt. Az. Time Alt. Az. Time Alt. Az.
20 Nov -0.8 04:42:25 21° ENE 04:42:25 21° ENE 04:43:45 10° ENE visible
20 Nov -3.0 06:15:15 18° WNW 06:17:33 57° NNE 06:20:49 10° E visible
21 Nov -2.8 05:27:42 47° N 05:27:54 47° N 05:31:08 10° E visible
22 Nov -0.7 04:40:07 20° ENE 04:40:07 20° ENE 04:41:23 10° ENE visible
22 Nov -3.3 06:12:57 20° WNW 06:15:05 89° SSW 06:18:23 10° ESE visible
23 Nov -3.2 05:25:20 67° N 05:25:24 67° NNE 05:28:42 10° ESE visible
24 Nov -0.6 04:37:43 20° E 04:37:43 20° E 04:38:53 10° E visible
24 Nov -2.7 06:10:33 23° W 06:12:18 45° SSW 06:15:28 10° SE visible
25 Nov -3.1 05:22:56 63° SSE 05:22:56 63° SSE 05:25:53 10° ESE visible
25 Nov -1.0 06:57:00 10° WSW 06:58:46 14° SW 07:00:31 10° SSW visible
26 Nov -0.3 04:35:20 16° ESE 04:35:20 16° ESE 04:36:07 10° ESE visible
26 Nov -1.7 06:08:09 19° WSW 06:09:10 22° SW 06:11:47 10° SSE visible
27 Nov -1.7 05:20:34 26° S 05:20:34 26° S 05:22:30 10° SSE visible
